GB 2

Satellite information

Favourite Embed

Satellite Type and Status

PAYLOADIN ORBIT

Key statistics

Satellite GB 2 at a glance.

Uptime

15368

Days in orbit

Revolutions

≈ 13.8

Per day

Orbit

LEO

Low Earth Orbit

Inclination

63.3

Latest

Satellite identification and parameters

Extended collection of information and parameters for GB 2.

Object identification

Identified? True

Debris? False

Object name: GB 2

International designator: 1983-056D

Object number (NORAD): 14144

Object ID (CCSDS): 14144

Country: UNITED STATES OF AMERICA (US)

Current information (Y/N): Y

RCS size: LARGE

Orbital parameters

Period: 104.673 minutes

Inclination: 63.3074 deg

SMA: 7357.284 km

Apoapsis: 1537.24 km

Periapsis: 421.059 km

RAAN: 132.3403 deg

Eccentricy: 0.0758555

Argument of periapsis: 126.0045 deg

Mean anomaly: 241.3775 deg

Mean motion: 13.75708551 rev/day

Mean motion (dot): 0.00002537 rev/day2

B* drag term: 0.00029151 1/REarth

Two-line elements (TLE)

Creation date: July 5, 2025, 5:45 p.m.

Reference frame: TEME

Reference center: EARTH

Epoch: July 5, 2025, 5:53 a.m. UTC

TLE line 0: 0 GB 2

TLE line 1: 1 14144U 83056D 25186.24533253 .00002537 00000-0 29151-3 0 9993

TLE line 2: 2 14144 63.3074 132.3403 0758555 126.0045 241.3775 13.75708551308167

Live tracking on map

Real-time ground track for satellite GB 2.

In-orbit conjunctions

A list of the most updated potential collisions computed for object GB 2.

Target Orbit TCA Probability of collision Miss distance Type
COSMOS 2251 DEB LEO 2025-04-25 10:38:12 0.0002073385 537.0 (m) DEBRIS
CZ-4 DEB SSO 2025-03-25 00:59:37 0.0001026018 263.0 (m) DEBRIS

Associated space launch

The Parcae satellites were passive ELINT satellites. MSD satellites were dispensers of triplets of ocean surveillance satellites.

GB 2 was lifted into orbit during the mission ‘Atlas H | Parcae 6A,B,C & MSD 6’, on board a Atlas H space rocket.

The launch took place on June 9, 1983, 11:23 p.m. from Space Launch Complex 3E.

For more information about the launch, click the button.

Launch to space Atlas H | Parcae 6A,B,C & MSD 6
Atlas H | Parcae 6A,B,C & MSD 6

Agency: N/A

Status: Launch Successful

Launch date: June 9, 1983, 11:23 p.m. UTC

Rocket: Atlas H

Launch pad: Space Launch Complex 3E

Location: Vandenberg SFB, CA, USA

...

Latest news about this satellite

There are no fresh news available about this satellite. Check back as we update our databases every day.


Newsletter sign-up

Weekly statistics, charts and insights to help you stay on top of the space industry.